Погода в Боре

Погода в Боре : погода сейчас, прогноз погоды и архив. Всё, что Вы хотите узнать о погоде в Боре!

Хотите узнать прогноз погоды в Боре? Тогда Вам сюда: Погода в Боре

Поиск расширенной информации на нашем сайте:

Другие новости

Новости СМИ2

Главная страница сайта

Новости сайта

03.07.2017

Напоминаем, что на нашем специализированном сайте Метеоцентр.Азия вы можете получить высокодетализированные автоматические прогнозы погоды по пунктам России, СНГ и мира в авиационном формате (включающие направление и скорость ветра, видимость, явления погоды, количество и форму облачности, нижнюю и верхнюю границу облачности).

Рекомендуем: http://odeon-mebel.by/ детские кровати в витебске фото и цены.

Погода в Боре - сегодня

Время (UTC), дата Ветер
(°,м/с) 
Видим.   Явления Облачность Т
(°С)
Тd
(°С)
f(%) Тe
(°С)
Pmin
(гПа)
dP
(гПа)
Po
(мм)
O2
(г/м3)
Тmin Tmax R s Состояние
почвы
09 16.06.18 310 (СЗ) 20000 м  {гроза, ливн. осадки}  8/8 600 м кучево-дожд. 
[Cb cap]
+21.2 +14.6 66 +29  1009.5  -0.6  752  278           
12 16.06.18 130 (ЮВ) 50000 м  {гроза, ливн. осадки}  8/3 600 м верхняя 
[Cu med, cong|Ci sp]
+21.9 +11.8 53 +25  1009.6  0.1  752  278    +23.5  0.0     
15 16.06.18 130 (ЮВ) 20000 м    6/3 600 м верхняя 
[Sc|Ci fib]
+19 +11.8 63 +25  1010.3  0.6  753  281           
18 16.06.18 120 (ЮВ) н/о    3/3 600 м 
[Sc]
+13.8 +12.1 89 +19  1011.4  0.9  753  287           
21 16.06.18 090 (В) 20000 м    ясно 
+12 +10.7 92 +15  1011.3  -0.1  753  289           
00 17.06.18 100 (В) 50000 м    ясно 
+15.1 +11.4 79 +19  1011.6  0.3  754  286  +11.7        влажная 
03 17.06.18 140 (ЮВ) 50000 м    4/3 600 м верхняя 
[Cu hum|Ci fib]
+21.6 +10.9 51 +24  1011.2  -0.1  753  279           
06 17.06.18 220 (ЮЗ) 50000 м    8/4 600 м верхняя 
[Cu med, cong|Ci fib]
+23.2 +11.3 47 +26  1010.5  -0.7  753  278           
09 17.06.18 260 (З) 20000 м    9/6 600 м кучево-дожд., верхняя 
[Cb cap|Ci fib]
+24.6 +11.1 43 +27  1010  -0.5  753  276           
12 17.06.18 250 (З) 18000 м  слаб. ливневой дождь  10/10 600 м кучево-дожд. 
[Cb cap]
+15.6 +13.3 86 +23  1012.1  1.8  754  285    +26.4     
15 17.06.18 тихо ()   20000 м  {ливн. осадки}  6/3 600 м верхняя 
[Sc|Ci fib]
+15.3 +13.5 89 +21  1011.4  -0.7  753  285           
18 17.06.18 тихо ()   н/о  {ливн. осадки}  ясно 
+13 +11.3 89 +16  1011.8  0.4  754  288           
21 17.06.18 тихо ()   20000 м    3/0 
[Sc]
+11.2 +9.6 90 +12  1011.8  754  290           
00 18.06.18 тихо ()   20000 м    8/4 600 м верхняя 
[Sc|Ci fib]
+14.4 +12.4 88 +19  1011.2  -0.6  753  286  +11    0.4    влажная 
03 18.06.18 120 (ЮВ) 20000 м    9/9 600 м 
[Sc]
+19.4 +13.3 68 +26  1010.3  -0.7  753  281           
06 18.06.18 140 (ЮВ) 50000 м    9/5 600 м верхняя 
[Sc|Ci sp]
+24.7 +12.6 47 +29  1008.8  -1.4  752  275           
09 18.06.18 120 (ЮВ) 50000 м    8/1 600 м верхняя 
[Ci sp]
+28.1 +11.7 36 +32  1007.8  -0.9  751  272           
12 18.06.18 040 (СВ) 50000 м    8/0 верхняя 
[Ci fib]
+29 +11.4 34 +32  1007.1  -0.7  750  271    +29.9       
15 18.06.18 тихо ()   20000 м    8/0 верхняя 
[Ci fib]
+23 +13.4 55 +29  1006.5  -0.7  750  276           
18 18.06.18 тихо ()   н/о    4/0 верхняя 
[Ci fib]
+16.9 +14.3 85 +24  1005.7  -0.9  749  281           
21 18.06.18 070 (В) 20000 м    3/0 верхняя 
[Ci fib]
+14.6 +12 84 +20  1005  -0.9  749  284           
00 19.06.18 080 (В) 50000 м    ясно 
+19.1 +12.3 65 +25  1004.4  -0.4  748  279  +13.9        влажная 
03 19.06.18 090 (В) 50000 м    3/0 верхняя 
[Ci fib]
+26.1 +13.4 45 +32  1002.3  -1.9  747  272           
06 19.06.18 130 (ЮВ) 50000 м    8/0 верхняя 
[Ci fib]
+30.2 +10.7 30 +32  1000.4  -1.9  745  269           
09 19.06.18 130 (ЮВ) 50000 м    3/0 верхняя 
[Ci fib]
+31.8 +10.2 26 +33  998.4  -1.9  744  267           
Время (UTC), дата Ветер
(°,м/с) 
Видим.   Явления Облачность Т
(°С)
Тd
(°С)
f(%) Тe
(°С)
Pmin
(гПа)
dP
(гПа)
Po
(мм)
O2
(г/м3)
Тmin Tmax R s Состояние
почвы

Для получения пояснительной информации подведите курсор к названию столбца.

ПОГОДА в Боре - архив

Всё, что Вы хотите узнать о погоде в Боре - удобно и подробно!

Выберите нужную дату (начиная с 1 января 2015* года) и нажмите кнопку "Найти".
Будут отображены архивные сводки погоды по пункту Бор, начиная с указанной даты.


Отображать данные в формате CSV (для использования в таблицах Excel)


Внимание! Наш архив погоды предназначен исключительно для личного некоммерческого использования в познавательных целях. Если Вам необходимы официальные справки о состоянии погоды (для производственных, юридических, коммерческих и т.п. целей), обращайтесь в органы Росгидромета.

*Примечание: данная дата относится к архиву по метеостанциям СССР (Россия, СНГ, Балтия).
Архив по метеостанциям Зарубежной Европы и Азии (кроме Китая) хранится 10 дней, по другим регионам земного шара (Китай, Африка, Америка, Австралия, Океания) - 1 день.

Бор - район местоположения метеостанции


Название, широта, долгота, высота метеостанции:
Бор 61.6°ш. 90°д. 58 м над ур. моря [Российская Федерация]

Дополнительная информация

В oтличие oт бoльшинства пoгoдных сайтoв мы публикуем пoдрoбную метеoинфoрмацию в детальнoм прoфессиoнальнoм фoрмате.

Характеристики температуры и влажнoсти вoздуха измеряются на высoте 2 м в тени вдали oт зданий и деревьев.
Скoрoсть ветра измеряется на высoте 10 м (на урoвне рoста челoвека скoрoсть ветра ниже в 1.5-2 раза). Если метеoстанция нахoдится в гoрoде или в лесу, тo скoрoсть ветра занижена на 2-4 м/с пo сравнению с oткрытым местoм. Скoрoсть ветра над акватoриями крупных рек и oзёр, а также на вершинах хoлмoв на 2-5 м/с выше, чем в oбычных услoвиях.
Атмoсфернoе давление в разных тoчках местнoсти мoжет значительнo oтличаться oт давления на метеoстанции, в зависимoсти oт услoвий рельефа (при пoдъёме на 10 м давление пoнижается примернo на 1 мм рт.ст.).